Regional Weather Roundup
Issued by NWS Sterling, VA

Home | Current Version | Previous Version | Graphics & Text | Print | Product List | Glossary On
Versions: 1 2 3 4 5 6 7 8 9 10 11 12 13 14 15 16 17 18 19 20 21 22 23 24 25 26 27
000
ASUS41 KLWX 251111
RWRLWX

REGIONAL WEATHER ROUNDUP
NATIONAL WEATHER SERVICE BALTIMORE MD/WASHINGTON DC
700 AM EDT SUN JUN 25 2017

Note: "FAIR" indicates few or no clouds below 12,000 feet
with no significant weather and/or obstructions to visibility.
 TC=TEMPERATURE CELSIUS

 * =Non NWS site. Station does not report precipitation (e.g. rain,
    snow, etc.), thunder, or fog.

DCZ001-MDZ009-015-VAZ040>042-051-053>054-251200-
WASHINGTON METRO

CITY           SKY/WX    TMP DP  RH WIND       PRES   REMARKS
WASHINGTON NAT PTSUNNY   75  61  61 NW6       30.01R
DULLES         PTSUNNY   66  62  87 SW3       30.02R
ANDREWS AFB    MOSUNNY   68  62  82 CALM      30.01R
FT BELVOIR     MOSUNNY   67  63  89 CALM      30.01R
QUANTICO       MOSUNNY   69  64  84 NW7       30.02R
COLLEGE PARK*  PTSUNNY   66  61  84 CALM      30.01R
LEESBURG*      PTSUNNY  N/A N/A N/A CALM      30.03R
MANASSAS*      PTSUNNY   64  63  94 CALM      30.03R
GAITHERSBURG*  CLOUDY    64  61  90 CALM      30.03R

$$

MDZ006>007-011-014-251200-
BALTIMORE METRO

CITY           SKY/WX    TMP DP  RH WIND       PRES   REMARKS
BWI AIRPORT    PTSUNNY   69  63  81 CALM      30.00R
MD SCIENCE CTR   N/A     76  59  55 MISG      30.00R
MARTIN STATE   PTSUNNY   70  66  88 CALM      30.00R
ANNAPOLIS      PTSUNNY   70  64  81 CALM      29.99R
FORT MEADE*    MOSUNNY   63  61  94 CALM      30.03R

$$

MDZ012-015-019>023-251200-
MARYLAND EASTERN SHORE

CITY           SKY/WX    TMP DP  RH WIND       PRES   REMARKS
OCEAN CITY     SUNNY     71  66  84 NW7       29.99R
SALISBURY      SUNNY     71  68  90 CALM      29.99R
BAY BRIDGE AP* PTSUNNY   75  63  64 NW5       30.00R
CAMBRIDGE*     CLOUDY    68  66  94 CALM      30.00R
EASTON*        MOSUNNY   72  66  83 CALM      30.03R

$$

MDZ017>025-251200-
SOUTHERN MARYLAND

CITY           SKY/WX    TMP DP  RH WIND       PRES   REMARKS
PATUXENT RIVER PTSUNNY   70  63  78 CALM      30.00R
ST INIGOES     SUNNY     71  69  93 CALM      30.00R
LEONARDTOWN*   PTSUNNY   66  63  88 CALM      30.02R

$$

MDZ003>005-251200-
NORTH CENTRAL MARYLAND

CITY           SKY/WX    TMP DP  RH WIND       PRES   REMARKS
FREDERICK*     MOSUNNY   66  66 100 CALM      30.04R
HAGERSTOWN APT MOSUNNY   68  60  75 CALM      30.03R
WESTMINSTER*   SUNNY     72  61  68 NW3       30.02R

$$

MDZ501>502-251200-
WESTERN MARYLAND

CITY           SKY/WX    TMP DP  RH WIND       PRES   REMARKS
OAKLAND*       NOT AVBL
CUMBERLAND*    MOSUNNY   61  61 100 CALM      30.09R

$$

VAZ025>031-251200-
SHENANDOAH VALLEY

CITY           SKY/WX    TMP DP  RH WIND       PRES   REMARKS
WINCHESTER*    CLOUDY    66  55  68 W3        30.04R
FRONT ROYAL*   MOSUNNY   63  59  88 S5        30.04R
LURAY*         CLOUDY    61  59  94 CALM      30.06R
NEW MARKET*    SUNNY     61  57  88 SW5       30.07R
STAUNTON*      PTSUNNY   56  55  96 CALM      30.10R
WAYNESBORO*    PTSUNNY   62  58  84 W3        30.09R

$$

WVZ021-048>050-054>055-251200-
EASTERN WEST VIRGINIA PANHANDLE

CITY           SKY/WX    TMP DP  RH WIND       PRES   REMARKS
MARTINSBURG    CLOUDY    66  59  78 W6        30.02R
PETERSBURG*    MOSUNNY   62  61  96 CALM      30.09R

$$

VAZ036>039-050-251200-
CENTRAL FOOTHILLS

CITY           SKY/WX    TMP DP  RH WIND       PRES   REMARKS
CHARLOTTESVILL MOSUNNY   68  59  73 W5        30.04R
CULPEPER*      MOSUNNY   63  63  99 CALM      30.04R
ORANGE*        MOSUNNY   63  59  88 CALM      30.03R
GORDONSVILLE*  MOSUNNY   62  61  95 CALM      30.03R
WARRENTON*     PTSUNNY   65  62  90 CALM      30.02R

$$

VAZ055>057-251200-
NORTH AND CENTRAL PIEDMONT

CITY           SKY/WX    TMP DP  RH WIND       PRES   REMARKS
FREDERICKSBRG* PTSUNNY   68  64  88 CALM      30.01R
STAFFORD*      PTSUNNY   64  64 100 CALM      30.06R

$$

NCZ024-NYZ072-PAZ021-071-VAZ022-071-251200-
OTHER REGIONAL OBSERVATIONS

CITY           SKY/WX    TMP DP  RH WIND       PRES   REMARKS
NEW YORK CITY  SUNNY     69  60  73 CALM      30.01R
PHILADELPHIA   PTSUNNY   72  60  66 CALM      29.99R
PITTSBURGH     PTSUNNY   60  57  89 W3        30.05R
ROANOKE        CLOUDY    66  58  75 CALM      30.11R
RICHMOND       PTSUNNY   72  69  90 NW6       30.01R
RALEIGH        CLOUDY    70  70 100 SW3       30.05R

$$

ANZ530>537-251200-
MARINE OBSERVATIONS

STATION/POSITION TIME  TEMP    WIND        PRES
                       AIR SEA DIR/SP/G
                 (UTC) (F)     (DEG/KT/KT) (MB)
THOMAS PT LIGHT  1100   73 77  300/  5/  6   N/A
BALT KEY BRIDGE  1048   74     280/  5/  7 1015.5R
COVE POINT       1048   73     310/  5/  6 1016.5R
LEWISETTA        1048   76 79  320/  4/  5 1015.6R
SOLOMONS ISLAND  1048   73 78  310/  3/  4   N/A
PINEY POINT      1048          360/  5/  6   N/A

$$





USA.gov is the U.S. government's official web portal to all federal, state and local government web resources and services.